SCP
0 0 0 0 0 0 0 0 0 0 0 0 0 0 0 0 0 0 0 0 0 0
0 0 0 0 0 0 0 0 0 0 0 0 0 0 0 0 0 0 0 0 0 0
0 0 0 0 0 0 0 0 0 0 0 0 0 0 0 0 0 0 0 0 0 0
0 0 0 0 0 0 0 0 0 0 0 0 0 0 0 0 0 0 0 0 -0 -0
0 0 0 0 0 0 0 0 -0 0 0 0 0 0 0 -0 0 0 0 0 0 0
0 0 0 0 0 0 0 0 0 0 0 0 0 0 -0 -0 -0 -0 0 0 0 0
0 0 0 0 0 0 0 0 0 0 0 0 0 0 -0 -0 -0 -0 -0 0 0 0
0 0 0 0 -0 -0 0 0 0 0 0 0 0 0 0 -0 -0 -0 -0 -0 0 0
0 0 0 -0 -0 -0 -0 -0 0 0 0 0 0 0 0 0 0 -0 -0 -0 -0 -0
0 -0 -0 -0 -0 -0 -0 0 0 0 0 0 0 0 0 0 0 0 -0 -0 -0 -0
0 -0 0 0 0 -0 -0 0 0 0 0 0 0 0 0 0 0 0 0 -0 -0 -0
0 -0 0 0 0 0 0 0 0 0 0 0 0 0 0 0 0 0 0 -0 0 0
0 0 0 0 0 0 0 0 0 0 0 0 0 0 0 0 0 0 0 -0 0 0
-0 -0 0 0 0 0 0 0 0 0 0 0 0 0 0 0 0 0 0 -0 -0 -0
Wind_Speed_500mb
32 41 51 70 67 58 55 60 53 53 52 43 46 48 48 43 39 36 32 36 37 38
42 54 74 68 51 54 53 47 49 51 48 45 45 43 40 37 35 31 31 35 35 33
53 67 67 44 49 49 49 49 43 47 41 38 32 32 33 34 32 33 32 33 35 32
60 56 43 45 44 40 45 44 33 28 28 25 30 34 36 34 32 31 32 28 29 28
59 43 41 32 24 33 42 36 23 20 29 33 38 38 42 41 37 25 32 32 23 20
40 36 25 21 28 33 39 37 34 28 31 33 26 32 35 30 31 31 28 25 18 14
33 28 28 33 34 32 36 36 33 30 22 27 26 28 31 35 36 32 18 22 21 21
38 38 38 36 35 34 38 29 24 25 19 23 29 24 22 29 32 32 29 28 27 29
38 42 41 34 33 32 30 27 23 21 18 19 24 24 24 22 25 30 27 29 30 31
37 35 36 32 32 29 27 24 23 20 17 20 23 22 23 14 15 18 19 20 22 24
35 34 39 31 27 27 27 24 18 20 16 22 29 26 25 21 11 8 11 17 26 28
34 34 41 30 28 31 28 26 22 22 22 25 29 27 25 25 19 10 7 23 31 35
37 29 34 28 28 24 27 26 21 23 28 25 24 27 23 21 16 16 14 25 36 33
29 32 28 23 20 23 26 31 26 24 24 19 21 23 25 20 17 17 14 25 32 30
Wind_Direction_500mb
302 314 328 330 327 324 326 324 322 325 326 327 322 324 320 313 320 322 325 327 330 325
303 318 328 329 323 321 324 326 323 325 323 322 320 325 326 326 324 325 320 318 325 325
319 326 331 335 334 328 326 322 322 327 326 329 333 337 342 340 338 332 320 319 316 314
329 331 327 324 337 343 337 332 333 332 349 4 15 6 350 347 346 341 337 325 321 324
329 330 336 342 346 355 359 2 0 12 359 343 1 349 340 334 338 331 338 339 333 332
333 335 343 354 347 349 348 351 351 3 353 352 350 351 2 1 351 346 355 0 15 6
346 1 11 356 350 347 346 343 340 348 354 356 359 1 20 22 14 13 12 20 26 23
16 5 357 355 347 341 343 343 344 350 352 353 5 9 12 23 26 35 47 54 53 51
2 359 354 352 357 356 355 354 353 354 346 339 2 3 13 30 23 31 42 45 41 39
2 358 1 354 354 0 2 4 9 8 347 346 354 1 15 356 358 30 41 28 22 26
4 3 3 2 10 12 9 6 20 5 4 10 14 11 360 348 337 31 35 26 9 0
10 10 9 20 18 21 14 16 16 7 14 7 14 18 8 22 57 25 64 16 354 355
12 8 7 13 20 27 20 22 19 15 27 25 28 31 25 26 42 66 24 13 348 1
5 11 14 23 30 36 26 22 33 32 25 24 25 21 14 14 19 27 6 355 4 22
Wind_Speed_850mb
32 41 51 70 67 58 55 60 53 53 52 43 46 48 48 43 39 36 32 36 37 38
42 54 74 68 51 54 53 47 49 51 48 45 45 43 40 37 35 31 31 35 35 33
53 67 67 44 49 49 49 49 43 47 41 38 32 32 33 34 32 33 32 33 35 32
60 56 43 45 44 40 45 44 33 28 28 25 30 34 36 34 32 31 32 28 29 28
59 43 41 32 24 33 42 36 23 20 29 33 38 38 42 41 37 25 32 32 23 20
40 36 25 21 28 33 39 37 34 28 31 33 26 32 35 30 31 31 28 25 18 14
33 28 28 33 34 32 36 36 33 30 22 27 26 28 31 35 36 32 18 22 21 21
38 38 38 36 35 34 38 29 24 25 19 23 29 24 22 29 32 32 29 28 27 29
38 42 41 34 33 32 30 27 23 21 18 19 24 24 24 22 25 30 27 29 30 31
37 35 36 32 32 29 27 24 23 20 17 20 23 22 23 14 15 18 19 20 22 24
35 34 39 31 27 27 27 24 18 20 16 22 29 26 25 21 11 8 11 17 26 28
34 34 41 30 28 31 28 26 22 22 22 25 29 27 25 25 19 10 7 23 31 35
37 29 34 28 28 24 27 26 21 23 28 25 24 27 23 21 16 16 14 25 36 33
29 32 28 23 20 23 26 31 26 24 24 19 21 23 25 20 17 17 14 25 32 30
Wind_Direction_850mb
302 314 328 330 327 324 326 324 322 325 326 327 322 324 320 313 320 322 325 327 330 325
303 318 328 329 323 321 324 326 323 325 323 322 320 325 326 326 324 325 320 318 325 325
319 326 331 335 334 328 326 322 322 327 326 329 333 337 342 340 338 332 320 319 316 314
329 331 327 324 337 343 337 332 333 332 349 4 15 6 350 347 346 341 337 325 321 324
329 330 336 342 346 355 359 2 0 12 359 343 1 349 340 334 338 331 338 339 333 332
333 335 343 354 347 349 348 351 351 3 353 352 350 351 2 1 351 346 355 0 15 6
346 1 11 356 350 347 346 343 340 348 354 356 359 1 20 22 14 13 12 20 26 23
16 5 357 355 347 341 343 343 344 350 352 353 5 9 12 23 26 35 47 54 53 51
2 359 354 352 357 356 355 354 353 354 346 339 2 3 13 30 23 31 42 45 41 39
2 358 1 354 354 0 2 4 9 8 347 346 354 1 15 356 358 30 41 28 22 26
4 3 3 2 10 12 9 6 20 5 4 10 14 11 360 348 337 31 35 26 9 0
10 10 9 20 18 21 14 16 16 7 14 7 14 18 8 22 57 25 64 16 354 355
12 8 7 13 20 27 20 22 19 15 27 25 28 31 25 26 42 66 24 13 348 1
5 11 14 23 30 36 26 22 33 32 25 24 25 21 14 14 19 27 6 355 4 22